星链-32183 (STARLINK-32183)

导读

STARLINK-32183是美国太空探索技术公司星链(Starlink)卫星互联网项目的卫星,于2024年8月12日由美国发射升空。它是星链星座扩容的组成部分,主要为全球范围内用户提供低延迟、高速率的卫星互联网接入服务,依托低轨运行架构,补充完善全球卫星互联网的覆盖密度与服务能力。

Basic Information
目录编号:
60433
目录名称:
STARLINK-32183
国际标识:
2024-144J
轨道中心:
EARTH
卫星名称:
星链-32183 (STARLINK-32183)
卫星全名:
星链-32183 (STARLINK-32183)
卫星状态:
在轨 (已飞行675 天)
发射日期:
2024-08-12 UTC
国别 :
美国 (US)
星等 :
--
Orbit Information
数据来源 国际轨道数据 AOE轨道数据
星历时间 2026-06-17T11:10:36+0800
22小时前
查看轨道信息
2026-06-12T00:00:00+0800
6天前
查看轨道信息
半长轴 6853.357km 6853.366km
偏心率 0.0001416 0.000201
轨道倾角 53.160° 53.156°
近地点辐角 84.043° 106.156°
升交点赤经 115.277° 140.665°
平近点角 276.073° 8.291°
近地点 474.249km 473.851km
远地点 476.191km 476.607km
周期 94.105分钟 94.106分钟
每日圈数 15.301984 15.301955
Detailed Information
卫星平台:
Starlink v2.0 mini
运营商:
太空探索技术公司
运营商所在国:
美国
制造商(研发单位):
太空探索技术公司
制造商所在国:
美国
使用方式:
暂无
Satellite Introduction
星链(Starlink)计划是由太空探索技术公司(SpaceX)提出的一个巨型低轨卫星互联网星座项目,计划在2019年至2024年间在太空搭建由约1.2万颗卫星组成的“星链”网络,其中1584颗将部署在地球上空550千米处的近地轨道,并从2020年开始工作。该卫星仍在工作。
2D Orbit Map
3D Orbit Map
Orbit Altitude Analysis Chart
Orbit Inclination Analysis Chart
Orbit Comprehensive Analysis Chart
View Comprehensive Chart